Temperature
2 3 3 3 3 3 3 3 3 3 4 4 4 4 4 4 4 4 4 4 4 4 4 4 4 4 5 5 5 5 5 5 4 4 4 4 4 4 4 4 4 4 4 4
1 3 2 2 3 3 3 3 3 3 3 4 4 4 3 3 3 3 4 4 4 4 4 4 4 4 4 4 4 4 4 4 4 4 4 4 4 4 4 4 4 3 3 3
0 2 2 1 2 3 2 2 3 3 3 3 2 2 3 3 3 3 3 3 3 3 3 3 3 3 3 3 4 4 4 4 4 4 4 4 4 4 3 3 3 3 3 3
-0 0 0 2 2 3 2 2 2 2 2 2 2 2 3 3 3 3 2 2 3 3 3 3 3 3 3 3 3 3 3 3 3 3 3 3 3 3 3 3 3 3 3 3
-1 -0 0 1 1 1 1 1 1 1 1 1 2 1 2 3 2 2 2 2 2 2 2 3 3 2 2 3 3 3 3 3 3 3 3 3 3 3 3 2 2 2 2 2
-1 -0 0 1 1 2 1 0 1 1 0 0 0 -0 1 2 1 1 1 1 2 2 2 2 2 2 2 2 2 2 3 3 3 3 3 3 3 2 2 2 2 2 2 2
-1 -1 -0 0 1 1 0 0 1 1 0 -0 -0 0 1 1 0 1 1 1 1 1 1 1 2 1 2 2 2 2 2 2 2 2 2 2 2 2 2 2 2 1 1 1
-2 -1 -0 0 -0 -0 -0 0 0 -0 -0 -1 -0 -0 -0 -0 -0 0 0 0 0 0 1 1 1 1 1 1 2 2 2 2 2 2 2 2 2 2 1 1 1 1 1 1
-2 -1 -0 0 -0 0 0 -0 -0 -1 -1 -1 -1 -1 -1 -1 -1 -1 -1 -1 -0 -0 -0 0 0 0 1 1 1 1 1 1 1 1 1 1 1 1 1 1 0 0 0 -0
-2 -2 -1 -1 -1 -1 -1 -1 -1 -1 -2 -2 -2 -2 -2 -2 -2 -2 -1 -1 -1 -1 -1 -1 -0 -0 -0 0 0 1 1 1 1 1 1 1 0 0 0 -0 -0 -0 -0 -0
-3 -3 -2 -2 -2 -2 -2 -2 -2 -2 -2 -2 -3 -3 -3 -2 -2 -2 -2 -2 -2 -2 -2 -1 -1 -1 -1 -0 -0 -0 0 0 0 0 -0 -0 -0 -0 -1 -1 -1 -1 -1 -1
-3 -3 -3 -3 -3 -3 -3 -3 -3 -3 -3 -3 -3 -3 -3 -3 -3 -3 -3 -2 -2 -2 -2 -2 -2 -1 -1 -1 -1 -1 -0 -0 -0 -1 -1 -1 -1 -1 -1 -1 -1 -1 -1 -2
-3 -3 -3 -3 -4 -4 -4 -4 -4 -4 -4 -4 -4 -3 -3 -3 -3 -3 -3 -3 -3 -3 -3 -3 -2 -2 -2 -2 -1 -1 -1 -1 -1 -1 -1 -2 -2 -2 -2 -2 -2 -2 -2 -2
-4 -4 -4 -4 -5 -5 -5 -5 -5 -5 -4 -4 -4 -4 -4 -4 -4 -4 -4 -3 -3 -3 -3 -3 -3 -3 -3 -2 -2 -2 -2 -2 -2 -2 -2 -2 -2 -2 -2 -2 -3 -3 -3 -3
-5 -5 -5 -5 -5 -5 -5 -5 -5 -5 -5 -5 -5 -5 -5 -5 -4 -4 -4 -4 -4 -4 -4 -4 -4 -3 -3 -3 -3 -3 -2 -2 -3 -3 -3 -3 -3 -3 -3 -3 -3 -3 -3 -3
-6 -6 -5 -6 -6 -6 -6 -6 -6 -6 -6 -6 -6 -5 -5 -5 -5 -5 -5 -4 -4 -4 -4 -4 -4 -4 -4 -4 -3 -3 -3 -3 -3 -3 -3 -4 -4 -4 -4 -4 -4 -4 -4 -4
-7 -7 -7 -7 -7 -7 -7 -7 -7 -7 -6 -6 -6 -6 -6 -6 -5 -5 -5 -5 -5 -5 -5 -5 -4 -4 -4 -4 -4 -4 -4 -4 -4 -4 -4 -4 -4 -4 -4 -4 -4 -5 -5 -5
-7 -7 -7 -7 -7 -7 -7 -7 -7 -7 -7 -7 -7 -7 -6 -6 -6 -6 -6 -6 -6 -5 -5 -5 -5 -5 -5 -5 -5 -5 -4 -4 -4 -5 -5 -5 -5 -5 -5 -5 -5 -5 -5 -6
-7 -7 -7 -8 -8 -8 -8 -8 -8 -8 -7 -7 -7 -7 -7 -7 -7 -7 -6 -6 -6 -6 -6 -6 -5 -5 -5 -5 -5 -5 -5 -5 -5 -5 -5 -5 -5 -5 -6 -6 -6 -6 -6 -6
-8 -8 -8 -8 -8 -8 -8 -8 -8 -8 -8 -8 -8 -8 -7 -7 -7 -7 -7 -7 -7 -7 -7 -6 -6 -6 -6 -6 -6 -6 -6 -6 -6 -6 -6 -6 -6 -6 -6 -6 -6 -6 -7 -7
-8 -8 -8 -8 -8 -8 -8 -9 -9 -9 -9 -8 -8 -8 -8 -8 -8 -8 -7 -7 -7 -7 -7 -7 -7 -7 -7 -7 -6 -6 -6 -6 -6 -6 -6 -7 -7 -7 -7 -7 -7 -7 -7 -7
-9 -9 -9 -9 -9 -9 -9 -9 -9 -9 -9 -9 -9 -9 -9 -8 -8 -8 -8 -8 -8 -8 -8 -7 -7 -7 -7 -7 -7 -7 -7 -7 -7 -7 -7 -7 -7 -7 -7 -7 -7 -7 -7 -7
-9 -9 -9 -9 -9 -9 -9 -9 -9 -9 -9 -9 -9 -9 -9 -9 -9 -9 -9 -9 -9 -8 -8 -8 -8 -8 -8 -7 -7 -7 -7 -7 -7 -7 -7 -7 -7 -7 -7 -7 -8 -8 -8 -8
-9 -9 -9 -9 -9 -9 -9 -9 -9 -9 -9 -9 -10 -9 -9 -9 -9 -9 -9 -9 -9 -9 -9 -8 -8 -8 -8 -8 -8 -8 -8 -8 -8 -8 -8 -8 -8 -8 -8 -8 -8 -8 -8 -8
-9 -10 -10 -10 -10 -10 -10 -10 -10 -10 -10 -10 -10 -10 -10 -10 -10 -10 -10 -9 -9 -9 -9 -9 -9 -9 -8 -8 -8 -8 -8 -8 -8 -8 -8 -8 -8 -8 -8 -8 -8 -8 -8 -8
-10 -10 -10 -10 -11 -11 -10 -10 -10 -10 -10 -10 -10 -10 -10 -10 -10 -10 -10 -10 -10 -9 -9 -9 -9 -9 -9 -9 -9 -9 -9 -9 -9 -8 -8 -8 -8 -8 -8 -8 -9 -9 -9 -8
-10 -10 -10 -10 -11 -11 -11 -11 -11 -11 -11 -11 -11 -11 -10 -10 -10 -10 -10 -10 -10 -10 -10 -10 -9 -9 -9 -9 -9 -9 -9 -9 -9 -9 -9 -9 -9 -9 -9 -9 -9 -9 -9 -9
Wind_Speed
9 9 7 9 10 7 9 9 9 9 9 10 8 8 6 4 4 3 3 3 3 2 2 2 2 2 2 3 2 3 3 4 4 4 3 3 3 3 4 4 4 4 4 4
7 8 8 10 10 9 10 9 9 10 10 8 7 5 5 5 3 3 4 4 4 4 3 3 3 3 3 3 3 2 3 4 4 3 3 3 3 3 3 3 3 3 4 4
6 6 6 8 8 8 6 5 5 9 9 7 7 7 6 5 4 4 5 5 5 5 5 4 4 4 3 4 3 3 3 4 3 3 3 3 3 3 3 3 3 3 3 4
4 2 7 6 1 2 4 3 3 3 6 7 7 8 6 4 3 5 6 6 6 6 6 5 4 3 3 2 2 3 4 4 4 4 3 3 3 3 3 3 3 3 3 4
3 5 8 6 3 2 4 5 3 5 8 8 8 6 4 3 4 5 6 6 6 6 5 4 4 3 2 2 2 3 4 4 4 4 4 3 4 3 3 3 3 3 3 4
4 5 6 5 5 5 1 4 5 5 7 8 7 6 7 7 8 8 7 6 5 5 4 4 4 3 2 3 3 4 4 4 4 4 5 5 4 3 2 3 3 3 3 4
7 7 6 5 5 3 2 5 7 6 7 7 6 7 9 9 8 7 7 6 5 4 4 4 3 2 3 4 5 5 3 3 3 4 4 4 3 2 2 2 2 3 3 2
4 6 7 3 2 1 4 5 6 7 7 7 8 8 9 8 8 8 7 6 5 4 5 5 3 3 4 5 4 3 2 3 3 3 3 3 3 3 3 3 3 2 2 2
6 7 5 2 3 5 4 6 7 7 8 7 8 9 10 9 8 7 7 7 5 4 5 5 3 3 5 5 2 2 2 3 3 3 3 3 4 4 3 3 3 2 2 3
5 7 7 7 5 6 6 7 8 8 8 8 8 9 10 9 8 7 7 6 5 5 5 5 4 4 4 3 2 2 3 3 3 3 3 3 2 3 3 4 3 3 3 2
7 7 7 6 6 7 8 8 8 8 8 8 8 10 9 9 8 7 7 6 5 5 6 6 5 4 3 2 2 3 3 3 2 2 3 2 2 2 3 3 4 4 3 3
7 7 6 10 9 9 9 9 9 9 10 9 8 10 10 9 8 7 7 6 5 5 6 5 4 4 3 2 2 3 3 2 2 2 2 2 2 1 1 0 1 2 2 1
8 8 8 8 8 8 8 9 10 9 9 10 9 8 8 8 7 6 6 5 6 6 5 4 4 3 3 2 2 3 3 3 2 2 2 2 3 3 2 2 2 2 1 1
5 5 6 7 8 9 9 9 9 9 8 8 8 8 7 7 6 6 5 5 5 4 4 3 3 3 2 1 1 2 2 2 2 2 2 2 2 2 2 2 1 1 1 1
6 6 7 8 8 8 8 8 9 9 8 8 7 7 7 6 6 6 5 5 3 3 3 2 2 2 1 0 1 1 2 2 2 2 2 2 2 2 2 2 2 1 1 0
9 8 6 7 8 9 8 8 8 9 9 9 8 7 6 6 6 5 4 3 2 2 2 2 2 2 1 0 0 1 1 1 1 2 2 2 2 2 2 2 2 1 1 0
7 8 8 9 9 9 8 8 8 8 8 8 7 7 6 5 5 5 4 4 3 3 3 2 3 3 2 1 1 1 1 1 2 1 2 2 2 2 2 2 1 1 1 1
7 8 8 8 8 9 9 8 8 8 8 8 7 6 5 4 4 4 4 4 4 4 4 4 3 3 3 2 1 1 1 1 1 1 1 1 1 1 1 1 1 1 0 0
8 8 8 8 7 6 7 7 7 7 7 6 6 5 4 4 3 3 3 3 3 4 4 4 5 4 3 3 2 1 1 1 1 1 1 2 2 1 1 1 1 1 0 0
8 8 8 7 6 5 6 6 6 6 6 6 5 5 5 5 4 4 4 4 3 3 3 4 4 4 3 3 3 1 1 1 1 1 1 1 1 1 1 1 1 1 0 0
8 8 8 7 7 7 6 6 6 6 6 6 5 5 5 5 5 4 4 4 5 5 5 5 4 3 3 3 3 2 2 2 2 1 1 1 1 1 1 1 0 0 0 0
7 7 7 7 6 7 7 6 5 6 6 6 6 5 5 5 5 5 5 3 4 6 5 4 3 4 5 5 3 2 2 2 2 1 1 1 1 1 0 0 0 0 0 0
6 6 6 6 5 5 6 6 6 6 6 6 6 6 5 4 4 3 4 4 4 6 5 3 5 6 7 5 3 3 3 2 2 1 1 1 0 0 0 0 0 0 0 1
5 5 5 5 4 5 6 7 7 6 6 6 6 6 5 4 4 4 3 5 7 7 4 5 8 8 8 4 3 3 3 2 2 1 1 1 1 0 0 0 1 1 1 1
5 4 4 5 5 5 5 5 6 6 6 6 7 7 5 4 3 3 4 5 7 7 5 7 9 9 6 4 3 3 2 2 1 1 1 1 1 0 0 1 1 1 2 1
4 4 4 4 4 4 4 4 4 5 5 5 5 6 5 4 4 4 4 5 6 7 6 5 5 6 4 4 3 3 3 2 3 2 2 1 1 1 1 1 2 2 2 1
4 4 3 4 4 4 4 4 4 4 5 4 5 5 5 5 5 5 5 5 5 5 5 4 4 4 4 4 3 3 3 3 2 2 2 2 2 1 1 2 2 2 2 2
Wind_Direction
258 268 264 265 270 256 237 234 238 253 261 282 295 297 295 301 314 330 338 344 330 301 290 289 291 291 273 252 233 219 210 212 219 225 224 213 204 205 200 193 197 194 195 201
276 269 270 274 269 258 252 247 245 261 271 283 304 318 317 309 312 318 317 316 314 310 298 286 275 275 277 262 241 219 217 223 224 215 208 205 203 196 194 192 191 190 197 197
272 288 302 268 246 231 237 235 228 248 268 305 320 314 295 285 289 285 295 301 300 296 281 273 267 256 259 257 244 223 225 226 217 207 203 203 200 190 194 195 190 196 203 199
271 295 249 246 247 225 235 250 239 271 303 304 293 295 286 273 278 295 300 297 295 295 285 274 268 267 262 251 236 229 228 226 219 209 208 202 195 201 203 197 197 206 211 208
231 249 268 284 294 263 235 265 290 292 308 318 321 319 303 297 305 295 288 285 286 287 280 271 267 266 265 258 240 235 233 227 217 206 203 198 200 204 204 199 206 212 209 203
223 240 251 270 305 305 190 260 310 309 307 317 336 317 297 317 316 309 308 300 295 294 289 272 267 256 250 254 242 240 238 231 217 204 198 203 204 202 202 198 208 204 205 203
230 244 260 285 320 23 163 275 317 315 307 304 288 276 290 304 307 305 306 301 301 300 294 279 266 245 251 252 247 245 239 229 215 206 203 201 192 190 181 178 179 189 196 204
220 234 253 323 17 173 259 294 307 307 303 295 296 301 303 303 305 310 312 310 310 307 302 296 264 240 252 255 255 245 224 215 214 208 201 193 177 176 171 164 167 182 188 199
216 236 275 293 259 278 290 293 295 297 299 297 300 300 302 300 300 302 305 307 307 303 303 302 289 252 249 260 250 225 214 214 212 207 198 189 185 180 174 173 180 194 195 205
258 266 280 289 289 296 297 292 296 297 296 293 292 294 296 295 295 297 299 302 305 305 300 297 295 283 261 256 225 204 209 207 194 188 188 182 189 185 183 187 190 198 202 207
264 281 300 294 299 304 309 308 307 307 301 294 294 294 292 291 290 293 297 298 299 295 288 288 295 291 282 262 213 202 202 194 186 183 177 174 181 200 201 207 205 201 207 201
265 278 282 289 299 307 309 310 310 310 309 304 296 292 292 289 288 289 290 293 296 295 289 289 292 289 285 264 215 195 193 184 184 187 179 170 163 111 36 160 185 192 197 204
275 291 286 287 302 311 310 309 309 306 302 304 303 300 298 296 295 292 287 286 285 286 283 284 288 288 286 266 223 198 190 187 179 177 179 177 171 164 136 55 69 92 111 137
306 317 305 307 307 309 310 310 311 311 309 306 305 308 308 305 304 299 290 287 286 285 283 283 291 288 275 245 213 187 179 183 176 180 180 179 176 175 167 155 134 27 28 133
320 314 295 300 307 312 316 318 320 320 321 321 315 314 313 310 306 303 301 301 302 300 293 297 304 303 297 192 178 174 170 173 167 165 169 168 157 149 147 148 149 137 38 32
314 313 308 310 313 316 321 321 319 317 319 318 318 317 316 313 313 317 323 329 325 318 320 323 316 317 331 11 112 155 168 152 135 149 151 147 142 144 147 149 151 162 183 322
315 316 317 316 315 315 316 316 313 311 313 314 315 318 323 326 329 334 339 351 357 346 343 341 338 343 349 8 110 130 122 126 94 115 145 146 145 153 158 159 163 175 212 248
294 292 293 295 303 309 315 319 320 320 318 316 322 327 328 326 326 331 342 360 10 5 359 357 360 0 0 7 34 85 111 120 126 134 126 128 128 135 148 158 166 165 107 304
314 311 311 310 310 311 315 320 323 326 329 332 336 340 340 339 338 342 352 5 6 352 347 356 2 12 11 9 20 71 99 105 94 85 87 117 102 107 135 147 149 147 139 57
329 329 329 329 332 332 328 329 334 338 342 346 351 356 360 358 358 1 5 8 358 345 344 359 11 14 13 16 29 66 80 87 87 84 85 98 108 110 109 117 118 129 139 114
330 334 337 340 339 341 343 342 344 348 351 356 1 358 357 359 4 11 21 14 4 9 13 16 18 13 14 23 32 54 63 65 69 78 91 99 105 101 94 90 98 125 138 24
330 335 339 343 347 348 349 353 358 360 360 3 6 5 6 5 9 18 21 11 1 6 13 14 14 17 25 28 37 47 52 53 52 55 65 84 108 119 117 103 82 342 359 327
332 338 343 349 351 349 353 0 3 5 6 6 6 6 7 5 5 10 6 4 7 12 17 17 20 24 28 32 39 41 43 45 42 38 33 40 64 112 151 167 250 279 267 271
342 346 348 350 358 8 6 0 1 4 4 6 8 8 7 7 10 11 5 3 11 17 23 22 23 25 28 35 36 36 36 38 35 25 22 27 34 51 78 258 278 284 272 270
344 350 357 1 4 1 355 353 359 4 8 9 9 11 11 11 10 1 5 10 14 20 21 18 21 24 26 26 29 28 22 21 28 26 22 20 12 6 324 289 275 273 273 264
349 353 354 353 352 349 350 355 1 0 2 3 3 3 4 6 10 8 8 12 15 17 16 11 9 15 17 19 20 19 18 15 15 15 6 355 343 334 320 308 293 286 280 269
351 358 1 2 2 1 359 1 1 358 357 358 356 355 357 1 7 11 12 13 14 14 11 9 7 7 12 15 14 13 12 9 6 3 355 350 340 327 315 305 298 295 290 275
Height
1504 1501 1499 1497 1495 1494 1494 1493 1492 1485 1482 1477 1475 1473 1471 1469 1467 1466 1465 1465 1464 1463 1463 1462 1462 1461 1461 1461 1461 1461 1462 1462 1462 1463 1463 1464 1464 1465 1465 1466 1467 1468 1468 1469
1504 1498 1496 1494 1490 1489 1487 1485 1484 1481 1478 1474 1473 1471 1469 1467 1466 1465 1463 1463 1462 1461 1460 1459 1459 1458 1458 1458 1458 1458 1458 1458 1459 1459 1460 1460 1461 1461 1462 1462 1463 1464 1464 1465
1505 1498 1495 1493 1484 1482 1482 1479 1479 1479 1476 1472 1471 1469 1467 1465 1464 1463 1461 1460 1459 1458 1457 1456 1456 1455 1455 1454 1454 1454 1454 1454 1455 1455 1456 1456 1457 1458 1458 1459 1459 1460 1461 1461
1506 1501 1501 1483 1477 1476 1477 1477 1476 1475 1473 1471 1469 1466 1464 1462 1461 1460 1459 1457 1456 1455 1454 1453 1452 1452 1452 1451 1451 1450 1450 1450 1451 1451 1452 1453 1453 1454 1454 1455 1456 1456 1457 1458
1506 1501 1489 1480 1477 1477 1477 1476 1473 1472 1470 1468 1465 1462 1460 1460 1459 1458 1456 1455 1453 1452 1450 1449 1449 1448 1448 1447 1447 1447 1446 1446 1447 1448 1448 1448 1449 1450 1451 1451 1452 1452 1453 1454
1502 1497 1488 1480 1475 1471 1473 1475 1470 1469 1468 1466 1464 1465 1459 1457 1456 1454 1452 1451 1449 1448 1447 1446 1445 1444 1444 1443 1443 1442 1442 1443 1443 1444 1444 1444 1445 1446 1447 1448 1448 1449 1449 1451
1498 1494 1483 1477 1473 1471 1478 1476 1470 1468 1466 1465 1463 1462 1458 1454 1452 1450 1448 1446 1445 1444 1442 1442 1441 1440 1440 1439 1439 1439 1439 1439 1439 1440 1440 1441 1442 1443 1443 1444 1445 1445 1446 1447
1494 1492 1484 1474 1473 1476 1474 1470 1468 1465 1464 1462 1459 1456 1453 1450 1448 1446 1444 1442 1441 1440 1438 1438 1437 1436 1435 1435 1435 1435 1435 1435 1435 1436 1437 1437 1438 1439 1440 1440 1441 1442 1442 1443
1486 1482 1475 1473 1472 1471 1470 1468 1465 1462 1460 1458 1455 1452 1449 1446 1444 1442 1440 1438 1437 1436 1434 1434 1433 1432 1431 1431 1431 1431 1431 1431 1432 1432 1433 1434 1435 1435 1436 1437 1437 1438 1439 1440
1481 1475 1472 1471 1469 1468 1467 1464 1461 1459 1456 1454 1450 1447 1444 1442 1439 1437 1435 1434 1433 1431 1430 1429 1428 1428 1428 1427 1427 1427 1427 1427 1428 1428 1429 1430 1431 1432 1433 1433 1434 1435 1436 1436
1477 1473 1469 1466 1466 1464 1462 1459 1457 1454 1452 1449 1446 1443 1440 1437 1435 1433 1431 1430 1429 1427 1426 1425 1424 1424 1424 1423 1423 1423 1423 1423 1424 1425 1425 1427 1428 1429 1430 1431 1432 1432 1433 1434
1474 1471 1470 1466 1463 1461 1458 1455 1452 1449 1446 1444 1441 1438 1435 1432 1430 1428 1426 1425 1424 1423 1422 1421 1420 1420 1420 1419 1419 1419 1419 1419 1420 1421 1422 1423 1424 1426 1427 1428 1429 1430 1430 1431
1470 1468 1465 1462 1460 1458 1455 1451 1448 1445 1442 1439 1436 1433 1430 1427 1425 1423 1422 1421 1420 1419 1418 1417 1416 1416 1416 1415 1416 1416 1416 1416 1417 1418 1419 1420 1421 1422 1423 1424 1425 1426 1427 1427
1467 1465 1461 1459 1456 1454 1450 1447 1444 1440 1437 1434 1431 1428 1426 1423 1421 1419 1418 1417 1416 1415 1414 1414 1413 1412 1412 1412 1412 1412 1413 1414 1414 1415 1416 1417 1418 1419 1420 1421 1422 1422 1424 1424
1464 1462 1459 1456 1453 1450 1446 1443 1439 1435 1432 1429 1427 1424 1422 1419 1417 1415 1414 1413 1412 1411 1411 1410 1409 1409 1409 1409 1409 1409 1410 1411 1412 1413 1414 1415 1416 1417 1418 1419 1419 1420 1420 1421
1460 1458 1455 1452 1449 1445 1442 1439 1435 1432 1429 1426 1423 1420 1418 1416 1414 1412 1411 1410 1409 1408 1408 1407 1407 1407 1407 1407 1407 1407 1408 1409 1410 1411 1412 1413 1414 1415 1415 1416 1417 1417 1418 1418
1458 1454 1450 1447 1444 1442 1439 1436 1433 1429 1426 1423 1420 1417 1415 1413 1411 1410 1409 1408 1408 1407 1406 1406 1405 1405 1405 1405 1405 1405 1406 1407 1408 1409 1409 1410 1411 1412 1413 1414 1415 1415 1416 1416
1456 1452 1449 1445 1442 1438 1435 1432 1429 1426 1423 1420 1417 1415 1413 1411 1409 1408 1407 1407 1406 1405 1405 1405 1404 1403 1403 1403 1403 1404 1405 1405 1406 1407 1407 1408 1409 1410 1412 1412 1413 1413 1413 1414
1452 1448 1445 1442 1439 1436 1433 1430 1427 1424 1421 1418 1415 1413 1411 1410 1409 1407 1406 1406 1405 1404 1404 1404 1403 1403 1402 1402 1402 1403 1403 1404 1404 1405 1406 1407 1408 1409 1409 1410 1411 1411 1411 1412
1448 1445 1441 1438 1436 1433 1430 1428 1425 1422 1419 1416 1414 1412 1410 1409 1408 1407 1406 1405 1405 1404 1403 1403 1402 1402 1401 1401 1402 1402 1402 1403 1403 1404 1405 1405 1406 1407 1407 1408 1408 1409 1409 1410
1446 1443 1439 1436 1434 1431 1429 1426 1424 1421 1418 1416 1414 1412 1410 1409 1408 1407 1405 1404 1405 1404 1403 1402 1402 1401 1401 1401 1401 1401 1401 1402 1402 1403 1403 1404 1405 1405 1406 1406 1406 1407 1407 1407
1444 1441 1438 1436 1433 1431 1428 1426 1423 1421 1419 1416 1414 1412 1411 1409 1408 1407 1406 1406 1405 1404 1403 1403 1402 1402 1401 1401 1401 1401 1401 1401 1401 1402 1402 1403 1403 1403 1404 1404 1404 1405 1405 1405
1443 1441 1438 1435 1433 1431 1429 1426 1424 1422 1419 1417 1415 1413 1411 1410 1409 1408 1406 1406 1405 1405 1404 1403 1403 1402 1402 1401 1401 1401 1401 1401 1401 1401 1401 1401 1402 1402 1402 1402 1402 1403 1403 1403
1443 1440 1438 1436 1434 1431 1429 1427 1425 1423 1421 1418 1417 1415 1413 1411 1410 1409 1408 1407 1406 1405 1405 1404 1404 1403 1402 1401 1401 1401 1400 1400 1400 1400 1400 1400 1400 1400 1400 1401 1401 1401 1401 1401
1443 1441 1438 1436 1434 1432 1430 1428 1425 1423 1422 1420 1418 1416 1414 1413 1411 1410 1409 1408 1407 1406 1405 1405 1404 1403 1402 1402 1401 1400 1400 1400 1399 1399 1399 1399 1399 1399 1399 1399 1399 1399 1399 1399
1443 1441 1439 1437 1435 1433 1431 1428 1426 1424 1422 1420 1419 1417 1416 1414 1413 1411 1410 1409 1408 1407 1406 1405 1404 1404 1403 1402 1401 1400 1400 1399 1399 1398 1398 1398 1398 1398 1397 1397 1397 1397 1397 1397
1443 1441 1439 1437 1435 1433 1431 1429 1427 1425 1424 1422 1419 1418 1416 1415 1413 1412 1411 1410 1409 1408 1407 1406 1405 1404 1403 1402 1401 1400 1400 1399 1398 1398 1397 1397 1397 1396 1396 1396 1396 1396 1396 1395